Torna al catalogo

STARLINK-3554

AttivoComunicazioniVLEO
NORAD 51872·PAYLOAD·🇺🇸 United States

Lanciato Mar 3, 2022 da Cape Canaveral Space Force Station

Loading…

Prossimi Passaggi (prossime 24 ore)

TLE

AggiornatoSource: CelesTrak SupGP

Epoca: Sep 14, 2026, 21:34 UTC

1 51872C 22022W   26257.89909722  .00025673  00000+0  73450-3 0  2570
2 51872  53.1572 229.5682 0001308  96.5801 275.2383 15.35386044    13

Traccia STARLINK-3554 in tempo reale con AllMySat

Download on the App Store